Flag for U.S.A. Weather past 2 weeks in Cumberland, Maryland, U.S.A.

Now
42 °F

Overcast.


Feels Like: 42 °F
Forecast: 36 / 54 °F
Wind: No wind

Location: Eastern West Virginia Regional Airport

Current Time: Mar 30, 2015 at 7:23:57 AM

Latest Report: Mar 30, 2015 at 6:53 AM


Visibility: 10 mi

Pressure: 29.89 "Hg

Humidity: 38%

Dew point: 18 °F

Location of CumberlandLocation

Historic Weather in Cumberland — Graph

°F

Cumberland temperature yesterday

Maximum temperature yesterday: 48 °F (at 4:53 PM)
Minimum temperature yesterday: 22 °F (at 6:53 AM)
Average temperature yesterday: 36 °F

Past Weeks' High & Low Weather Summary

 TemperatureHumidityPressure
High75 °F (Mar 26, 3:53 PM)92% (Mar 20, 5:53 AM)30.42 "Hg (Mar 20, 5:53 AM)
Low22 °F (Mar 29, 6:53 AM)15% (Mar 22, 4:53 PM)29.57 "Hg (Mar 26, 4:53 PM)
Average43 °F50%30.09 "Hg
* Reported Mar 15 5:53 AM — Mar 30 5:53 AM, Cumberland, Weather by CustomWeather, © 2015

Note: Actual official high and low records may vary slightly from our data, if they occured in-between our weather recording intervals... More about our weather records

Advertising

Cumberland weather history for previous 24 hours

 ConditionsComfort  
Time TempWeatherWind HumidityBarometerVisibility
5:53 AM
Mon, Mar 30
42 °FOvercast.3 mph35%29.90 "Hg10 mi
4:53 AM42 °FOvercast.6 mph32%29.92 "Hg10 mi
3:53 AM40 °FMostly cloudy.No wind43%29.96 "Hg10 mi
2:53 AM42 °FMostly cloudy.No wind33%30.00 "Hg10 mi
1:53 AM43 °FMostly cloudy.7 mph28%30.01 "Hg10 mi
12:53 AM44 °FMostly cloudy.8 mph35%30.03 "Hg10 mi
11:53 PM
Sun, Mar 29
44 °FOvercast.10 mph24%30.05 "Hg10 mi
10:53 PM44 °FPassing clouds.6 mph24%30.09 "Hg10 mi
9:53 PM43 °FClear.10 mph25%30.09 "Hg10 mi
8:53 PM42 °FClear.9 mph25%30.13 "Hg10 mi
7:53 PM42 °FSunny.7 mph24%30.15 "Hg10 mi
6:53 PM45 °FSunny.8 mph21%30.17 "Hg10 mi
5:53 PM48 °FSunny.8 mph18%30.19 "Hg10 mi
4:53 PM48 °FSunny.9 mph16%30.23 "Hg10 mi
3:53 PM47 °FSunny.9 mph18%30.26 "Hg10 mi
2:53 PM44 °FSunny.6 mph22%30.29 "Hg10 mi
1:53 PM43 °FSunny.5 mph22%30.32 "Hg10 mi
12:53 PM40 °FSunny.3 mph24%30.36 "Hg10 mi
11:53 AM37 °FSunny.7 mph27%30.38 "Hg10 mi
10:53 AM34 °FSunny.6 mph31%30.41 "Hg10 mi
9:53 AM31 °FSunny.8 mph35%30.42 "Hg10 mi
8:53 AM28 °FSunny.9 mph41%30.40 "Hg10 mi
7:53 AM25 °FClear.8 mph48%30.39 "Hg10 mi
Weather by CustomWeather, © 2015

See weather overviewHow to use our weather pages